Location: Montreal
(45.5000°N, 73.5833°W)
Time: 05:18:09
(UTC-04:00)

Vanguard 2 - Visible Passes

Search period start: 24 June 2018 00:00
Search period end: 04 July 2018 00:00
Orbit: 553 x 2939 km, 32.9° (Epoch: 23 June)

Date Brightness Start Highest point End Pass type
(mag) Time Alt. Az. Time Alt. Az. Time Alt. Az.
24 Jun 9.7 02:45:23 17° S 02:45:51 17° SSE 02:49:47 10° SE visible
25 Jun 9.5 03:01:49 19° S 03:03:47 21° S 03:08:15 10° ESE visible
26 Jun 10.3 01:16:49 12° SE 01:16:49 12° SE 01:17:37 10° SE visible
26 Jun 9.3 03:18:11 18° SSW 03:21:42 24° S 03:26:27 10° ESE visible
27 Jun 10.0 01:33:06 19° SE 01:33:06 19° SE 01:36:32 10° ESE visible
27 Jun 9.2 03:34:27 15° SW 03:39:36 27° S 03:44:28 10° ESE visible
28 Jun 9.7 01:49:14 25° SSE 01:49:14 25° SSE 01:54:58 10° ESE visible
28 Jun 9.1 03:50:34 11° WSW 03:57:28 28° S 04:02:21 10° SE visible
29 Jun 10.7 00:03:50 10° ESE 00:03:50 10° ESE 00:03:56 10° ESE visible
29 Jun 9.5 02:05:09 28° S 02:06:54 29° S 02:13:10 10° ESE visible
29 Jun 9.0 04:08:12 10° WSW 04:15:18 28° S 04:20:09 10° SE visible
30 Jun 10.3 00:19:27 19° SE 00:19:27 19° SE 00:22:49 10° ESE visible
30 Jun 9.4 02:20:44 25° SSW 02:24:50 33° S 02:31:12 10° ESE visible
30 Jun 9.1 04:26:14 10° WSW 04:33:05 27° SSW 04:37:48 10° SE visible
30 Jun 10.9 22:17:18 10° S 22:33:06 - ESE 22:22:14 14° SSE visible
01 Jul 9.9 00:22:32 10° SW 00:34:16 28° SSE 00:41:18 10° ESE visible
01 Jul 9.3 02:35:25 17° SW 02:42:44 35° S 02:49:08 10° ESE visible
01 Jul 10.6 22:32:07 10° S 22:41:47 19° SSE 22:49:33 10° ESE visible
02 Jul 9.8 00:39:40 10° SW 00:51:32 33° SSE 00:59:32 10° ESE visible
02 Jul 9.2 02:50:42 10° WSW 03:00:37 36° S 03:06:58 10° ESE visible
02 Jul 10.4 22:48:03 10° SSW 22:59:40 25° SSE 23:08:32 10° ESE visible
03 Jul 9.7 00:57:06 10° SW 01:09:28 37° S 01:17:36 10° ESE visible
03 Jul 9.2 03:08:42 10° WSW 03:18:27 35° SSW 03:24:42 10° SE visible
03 Jul 10.3 23:04:38 10° SSW 23:17:35 30° SSE 23:27:06 10° ESE visible
